Regional Weather Roundup
Issued by NWS Charleston, SC

Current Version | Previous Version | Graphics & Text | Print | Product List | Glossary On
Versions: 1 2 3 4 5 6 7 8 9 10 11 12 13 14 15 16 17 18 19 20 21 22 23 24 25 26 27 28 29 30 31 32 33 34 35 36 37 38 39 40 41 42 43 44 45 46 47 48 49 50
000
ASUS42 KCHS 060427
RWRCHS

REGIONAL WEATHER ROUNDUP
NATIONAL WEATHER SERVICE CHARLESTON SC
1100 PM EST FRI FEB 05 2016

NOTE: "FAIR" INDICATES FEW OR NO CLOUDS BELOW 12,000 FEET WITH NO
SIGNIFICANT WEATHER AND/OR OBSTRUCTIONS TO VISIBILITY.

NOT ALL STATIONS ARE QUALITY CONTROLLED BY THE NATIONAL
WEATHER SERVICE. USE DATA WITH CAUTION...ESPECIALLY
DEWPOINT OBSERVATIONS.

NOTICE: OBSERVATIONS FOR THE SAVANNAH-HILTON HEAD INTERNATIONAL AIRPORT
/KSAV/ HAVE BEEN TEMPORARILY REMOVED DUE TO AN ERRONEOUS TEMPERATURE
SENSOR. THE OBSERVATION WILL BE REINTRODUCED ONCE REPAIRS ARE COMPLETE.

SCZ027-030-031-034>040-042>050-060500-
...SOUTHEAST SOUTH CAROLINA...

CITY           SKY/WX    TMP DP  RH WIND       PRES   REMARKS
N CHARLESTON   CLEAR     38  30  73 N3        30.39F
WATERFRONT PRK   N/A     46  33  60 NE7       30.24R
MOUNT PLEASANT FAIR      37  34  87 CALM      30.40S
JOHNS ISLAND   FAIR      37  34  87 CALM      30.40S
PINOPOLIS        N/A     46  30  53 NE7       30.33R
MONCKS CORNER  FAIR      34  30  86 CALM      30.40S
SUMMERVILLE    NOT AVBL
BEAUFORT MCAS  CLEAR     39  28  64 N6        30.40R WCI  35
BEAUFORT ARPT  FAIR      41  30  65 N5        30.39S
HILTON HEAD IS CLEAR     46  30  53 N7        30.40S
WALTERBORO     CLEAR     37  30  75 NE7       30.41S WCI  32
ALLENDALE      FAIR      36  30  80 CALM      30.40S

...SOUTHERN MIDLANDS AND PEE DEE...

CITY           SKY/WX    TMP DP  RH WIND       PRES   REMARKS
GEORGETOWN     NOT AVBL
KINGSTREE      NOT AVBL
ORANGEBURG     CLEAR     35  29  78 CALM      30.40S
BARNWELL       FAIR      34  30  86 CALM      30.41S
AIKEN          FAIR      30  27  86 CALM      30.42S
MANNING        FAIR      32  28  86 CALM      30.41S
COLUMBIA       CLEAR     32  26  78 W3        30.40R
SUMTER         CLEAR     34  26  71 CALM      30.39R
FLORENCE       CLEAR     34  29  82 CALM      30.42R
MYRTLE BEACH   CLEAR     36  27  69 CALM      30.43R
N MYRTLE BEACH CLEAR     35  32  88 CALM      30.41R

$$

GAZ063-065-086>088-099>101-113>116-118-119-134>141-150-060500-
...SOUTHEAST GEORGIA...

CITY           SKY/WX    TMP DP  RH WIND       PRES   REMARKS
SAVANNAH ARPT  CLEAR     39  28  64 NE5       30.39S WCI  36
HUNTER AAF     CLEAR     43  28  55 NE5       30.36S
FORT STEWART   CLEAR     36  32  85 CALM      30.36S
STATESBORO     CLEAR     38  31  74 CALM      30.39F
SYLVANIA       CLEAR     37  33  85 NE5       30.40S WCI  33
CLAXTON        FAIR      36  34  93 CALM      30.39S

...CSRA...CENTRAL AND FAR SOUTHEAST GEORGIA...

CITY           SKY/WX    TMP DP  RH WIND       PRES   REMARKS
THOMSON        CLEAR     32  31  96 CALM      30.43F
AUGUSTA-BUSH   CLEAR     32  28  85 CALM      30.40S
AUGUSTA-DANIEL CLEAR     42  19  39 E6        30.40R
SWAINSBORO     FAIR      39  27  60 NE5       30.39F WCI  36
VIDALIA        CLEAR     37  30  75 NE5       30.37F WCI  34
EASTMAN          N/A     32  32 100 CALM      30.40S FOG
HAZLEHURST     FAIR      40  30  67 NE3       30.36S
ALMA           CLEAR     35  33  92 CALM      30.36F
WAYCROSS       CLEAR     38  37  93 CALM      30.36S
JESUP          FAIR      37  37 100 CALM      30.37S
BAXLEY         FAIR      37  36  93 CALM      30.36F
BRUNSWICK      CLEAR     37  37 100 CALM      30.37S
SAINT SIMONS   CLEAR     42  36  79 N5        30.35F

$$

SCZ027-028-034-036>038-045-046-048>050-GAZ119-141-060500-
...LAKE AND SUPPLEMENTAL COASTAL OBSERVATIONS...

STATION/POSITION TIME  TEMP    WIND        PRES    WAVE   SWELL
                       AIR SEA DIR/SP/G            HT/PER HT/PER/DIR
                 (UTC) (F)     (DEG/KT/KT) (MB)    (FT/S) (FT/S/D)
WINYAH BAY       0300   42     360/  5     1027.0S
LAKE MURRAY      0300   39        CALM     1028.4R
ACE BASIN NERRS  0300   37        CALM     1029.0S
FORT PULASKI     0400   48 55   20/  9/ 11 1029.0F
SAPELO ISLAND    0400   41      40/  6     1028.0S

$$

ANZ835-935-AMZ111-154-330-350-352-354-370-450-454-472-060500-
...C-MAN AND BUOY OBSERVATIONS...

STATION/POSITION TIME  TEMP    WIND        PRES    WAVE   SWELL
                       AIR SEA DIR/SP/G            HT/PER HT/PER/DIR
                 (UTC) (F)     (DEG/KT/KT) (MB)    (FT/S) (FT/S/D)
BUOY 41004       0350   52 67   20/ 14/ 19 1028.2S   4/ 7   2/ 7
BUOY 41008       0350   52 56   50/ 14/ 16 1028.2F   3/ 6   2/ 70/ 8
FOLLY BEACH CMAN 0400   47      30/ 10/ 11 1029.2S
CAPERS NEARSHORE 0308   49      50/ 14/ 17 1028.0R
FRIPP NEARSHORE  0300   50      20/ 14/ 16 1027.8R


STATION/POSITION TIME  TEMP    WIND        PRES    WAVE   SWELL
                       AIR SEA DIR/SP/G            HT/PER HT/PER/DIR
                 (UTC) (F)     (DEG/KT/KT) (MB)    (FT/S) (FT/S/D)
5E ST. MARYS GA  0321      58                N/A     3/ 6
FRYING PAN BUOY  0400   49 70   20/ 12/ 19 1028.8S
BUOY 41025       0350      73  360/ 17/ 23 1028.8R   7/10   5/ 50/10
CAPE LOOKOUT NC  NOT AVBL
BUOY 41002       0350   58 69   20/ 19/ 23   N/A    11/10   8/340/10
BUOY 41010       0320   65 73              1023.1F
ST AUGUSTINE FL  0400   54 59   10/ 25/ 28 1026.3F


$$



USA.gov is the U.S. government's official web portal to all federal, state and local government web resources and services.